Location: The D'Auria's Ocala Star Observatory
(29.0276°N, 82.1742°W)
Time: 16:27:00
(UTC-04:00)

Daily predictions for brighter satellites

Satellite Brightness Start Highest point End
(mag) Time Altitude Azimuth Time Altitude Azimuth Time Altitude Azimuth
NOSS 3-1 (C) 4.5 20:49:19 10° SSE 20:53:21 20° ESE 20:57:33 10° ENE
Cosmos 332 Rocket 4.0 20:50:13 10° N 20:54:59 56° ENE 20:59:45 10° SSE
SWIFT 4.4 20:54:35 10° SW 20:57:06 15° SSW 20:59:37 10° SSE
Cosmos 2322 Rocket 2.8 20:52:39 10° N 20:57:55 40° ENE 21:03:09 10° SE
Cosmos 1777 Rocket 4.2 20:53:49 10° S 20:58:55 52° ESE 21:04:01 10° NNE
In-Cosmos 22 4.4 20:53:58 10° S 20:59:33 54° E 21:05:09 10° NNE
FENGYUN 3A 3.8 20:57:44 10° SSE 21:03:01 58° ENE 21:08:20 10° N
Delta 128 3.9 20:58:54 10° W 21:03:49 56° SSW 21:08:15 10° ESE
Cosmos 1980 Rocket 2.9 21:00:38 10° NNW 21:06:12 57° WSW 21:11:44 10° S
Cosmos 2360 Rocket 4.0 21:03:09 10° NNE 21:06:31 16° ENE 21:09:53 10° E
SL-16 R/B 2.6 21:03:59 10° N 21:09:27 48° ENE 21:14:54 10° SE
USA 186 0.8 21:11:52 10° SSE 21:14:02 63° E 21:16:16 10° N
OAO 2 Rocket 3.5 21:10:38 10° SW 21:15:52 63° SSE 21:21:08 10° ENE
GPS 2-04 Rocket1 2.9 21:12:40 10° WNW 21:17:03 76° SSW 21:20:47 14° ESE
Cosmos 2266 Rocket 4.4 21:15:47 10° SSE 21:21:42 43° E 21:27:31 10° NNE
Cosmos 1674 3.3 21:20:32 10° SSE 21:24:01 35° E 21:27:33 10° NNE
Cosmos 1151 Rocket 4.3 21:22:35 10° NNE 21:26:01 23° E 21:28:09 16° ESE
ALOS 2.5 21:21:34 10° S 21:26:12 73° W 21:30:52 10° NNW
Cosmos 371 Rocket 3.2 21:25:10 10° NNW 21:29:59 87° ENE 21:34:38 11° SSE
Cosmos 405 4.5 21:27:36 10° NNE 21:30:27 21° ENE 21:31:43 18° ESE
Cosmos 1553 Rocket 4.0 21:26:10 10° N 21:32:32 74° E 21:38:47 10° S
H-2A R/B 2.6 21:30:53 10° SW 21:33:27 38° SSE 21:41:16 10° E
BREEZE-M DEB (TANK) 3.9 21:30:59 10° S 21:34:11 17° SSE 21:34:11 17° SSE
Cosmos 1833 4.4 21:31:11 10° SSW 21:36:54 78° WNW 21:42:37 10° NNE
OTV 4 1.0 21:34:10 10° SW 21:36:55 35° SSE 21:37:59 25° ESE
Cosmos 1538 Rocket 4.0 21:31:50 10° NNW 21:37:12 84° ENE 21:41:58 13° SSE
Tiangong 1 2.3 21:36:04 10° WSW 21:39:03 43° NNW 21:42:02 10° NE
YAOGAN 11 4.1 21:38:41 11° S 21:42:43 84° WSW 21:47:05 10° NNW
Meteor 2-20 4.4 21:37:27 10° S 21:43:36 84° E 21:49:45 10° N
Hubble Space Telescope 1.9 21:41:17 10° SSW 21:44:39 24° SSE 21:45:05 24° SSE
H-2A R/B 4.1 21:42:27 10° SSW 21:46:04 38° W 21:49:38 10° NNW
Cosmos 1939 Rocket 3.1 21:45:33 25° SE 21:47:34 48° ENE 21:51:20 10° N
H-2A R/B 2.4 21:45:08 22° SE 21:47:54 54° ENE 21:52:18 10° N
CZ-4 DEB 4.0 21:46:07 10° S 21:49:05 40° W 21:52:08 10° NNW
ATLAS CENTAUR R/B 3.3 21:50:07 10° NW 21:53:37 25° WSW 21:56:53 10° SSW
Cosmos 773 Rocket 4.0 21:48:51 10° N 21:54:02 66° ENE 21:57:03 25° SSE
SPOT 5 3.5 21:53:20 26° ESE 21:55:04 36° ENE 21:59:23 10° N
GPS 2-12 Rocket1 4.2 21:51:41 10° WSW 21:55:21 25° S 21:56:08 23° SSE
Cosmos 1328 Rocket 4.2 21:51:12 10° NNW 21:55:33 56° W 21:59:43 11° S
Cosmos 1437 Rocket 2.6 21:52:06 10° N 21:55:56 82° E 21:57:55 27° SSE
NOSS 3-1 (A) 3.4 21:51:22 10° S 21:56:55 55° ESE 22:02:54 10° NE
COSMOS 2428 4.2 21:55:08 10° NNE 21:59:25 21° ENE 22:01:17 18° E
SJ-11-01 4.4 21:56:02 18° S 21:59:35 77° WSW 22:04:20 10° NNW
PSLV R/B 4.4 22:00:36 27° ENE 22:00:36 27° ENE 22:03:01 10° NNE
Nadezhda 2 Rocket 4.4 22:01:09 15° S 22:06:14 68° E 22:12:18 10° NNE
Cosmos 2219 Rocket 4.3 22:05:46 10° NE 22:07:24 11° ENE 22:08:52 10° ENE
Cosmos 304 Rocket 4.0 22:03:13 10° N 22:07:56 52° ENE 22:09:26 37° SE
Meteor 2-2 Rocket 4.4 22:02:32 10° N 22:08:34 80° W 22:13:03 19° S
Cosmos 1437 3.8 22:14:42 22° SW 22:16:29 46° W 22:19:39 10° N
Cosmos 1328 3.9 22:15:23 28° SSW 22:17:23 72° W 22:21:20 10° N
ATLAS 2AS CENTAUR R/B 3.5 22:18:20 31° ESE 22:19:06 32° ESE 22:25:43 10° NE
Envisat 3.0 22:19:28 31° S 22:21:55 79° WSW 22:27:00 10° NNW
ERS-1 Rocket 4.0 22:19:18 15° SSW 22:23:03 41° W 22:27:47 10° NNW
Cosmos 1726 3.7 22:21:12 10° NNE 22:23:25 23° NE 22:23:25 23° NE
Cosmos 2219 3.9 22:20:03 10° SSW 22:25:40 56° WNW 22:31:19 10° N
BREEZE M DEB (TANK) 3.3 22:33:23 10° W 22:35:24 34° SW 22:35:24 34° SW
Cosmos 2082 4.4 22:38:00 36° E 22:38:00 36° E 22:42:24 10° NE
Cosmos 2237 Rocket 4.2 22:36:04 10° NNE 22:39:05 14° ENE 22:39:42 14° ENE
SL-14 R/B 3.3 22:40:06 78° N 22:40:06 78° N 22:43:51 10° N
Cosmos 2322 3.8 22:35:39 10° NNW 22:41:20 70° WSW 22:43:02 45° S
Cosmos 2322 Rocket 4.3 22:37:41 10° WNW 22:41:33 19° W 22:45:26 10° SW
Cosmos 1937 Rocket 3.4 22:41:23 62° SSE 22:42:02 70° ESE 22:47:14 10° NNE
Cosmos 2112 Rocket 3.9 22:37:05 10° NNW 22:42:21 84° WSW 22:43:24 58° S
Terra 3.6 22:43:25 19° ENE 22:43:25 19° ENE 22:46:06 10° NNE
NOSS 3-1 (C) 4.4 22:38:10 10° SW 22:43:37 44° WNW 22:49:34 10° NNE
Cosmos 2298 Rocket 4.4 22:39:48 18° SSW 22:43:41 64° WNW 22:48:58 10° N
MetOp-B 4.1 22:44:55 51° S 22:46:16 77° WSW 22:51:38 10° NNW
Meteor 1-4 Rocket 4.5 22:43:45 10° NNE 22:45:29 22° NNE 22:45:29 22° NNE
NOAA 11 4.2 22:47:19 55° E 22:47:48 57° ENE 22:53:08 10° N
Sich 1 3.0 22:48:46 79° WSW 22:48:53 80° W 22:53:18 10° N
Meteor 1-27 4.1 22:44:07 10° N 22:49:47 79° E 22:50:34 65° SSE
Cosmos 2360 Rocket 2.6 22:45:18 10° NNW 22:50:48 54° WSW 22:52:21 41° SSW
Cosmos 1633 Rocket 3.1 22:52:39 76° WNW 22:52:39 76° WNW 22:56:58 10° N
Cosmos 990 Rocket 4.2 22:53:44 53° ENE 22:53:44 53° ENE 22:58:01 10° NNE
FALCON 9 R/B 4.5 22:18:46 10° W 22:53:16 70° N 23:00:29 13° ENE
Cosmos 2058 4.3 22:52:03 27° WSW 22:53:21 34° W 22:57:06 10° NNW
DELTA 2 R/B (1) 3.6 22:51:55 10° WNW 22:57:27 69° NNE 22:58:07 62° ENE
OAO 2 Rocket 4.1 22:55:38 10° W 23:00:50 53° NNW 23:03:20 29° NE
SL-08 RB Rocket 4.1 23:06:50 58° N 23:06:50 58° N 23:10:28 10° N
H-2A R/B 2.7 23:08:02 43° NE 23:08:02 43° NE 23:12:37 10° N
Cosmos 2227 Rocket 2.1 23:11:30 84° ENE 23:11:30 84° ENE 23:17:02 10° NNE
SPOT 1/Viking Rocket 4.1 23:19:48 49° WSW 23:19:53 49° W 23:24:52 10° NNW
Cosmos 2333 Rocket 2.8 23:26:33 10° N 23:31:18 47° NE 23:31:18 47° NE
SL-16 R/B 4.1 23:28:51 10° NNE 23:32:01 18° NE 23:32:01 18° NE
Cosmos 2297 Rocket 2.6 23:39:29 59° N 23:39:29 59° N 23:44:04 10° NNE
ARGOS 4.2 23:41:02 38° W 23:41:02 38° W 23:45:51 10° NNW
Nadezhda 1 Rocket 4.0 23:36:42 10° N 23:42:17 75° NNW 23:42:17 75° NNW
COSMOS 2428 3.7 23:38:28 10° NW 23:43:18 39° W 23:43:18 39° W
Cosmos 2219 Rocket 2.8 23:46:16 10° NNW 23:50:35 54° NW 23:50:35 54° NW
